Location: Asheville, NC
(35.6000°N, 82.5500°W)
Time: 00:06:27
(UTC-04:00)

ISS - Pass Details

Date: 14 October 2017
Orbit: 401 x 408 km, 51.6° (Epoch: 23 October)

Event Time Altitude Azimuth Distance (km) Brightness Sun altitude
Rises 21:02:17 0° 300° (WNW) 2,320 1.1 -26.5°
Reaches altitude 10° 21:04:34 10° 287° (WNW) 1,458 0.0 -26.9°
Enters shadow 21:06:12 21° 263° (W) 979 -1.2 -27.3°
